AirNav   Air Wisconsin pilot careers
 
 1354 users online  

I54 Mad River Airpark
Tremont City, Ohio, USA

GOING TO TREMONT CITY?


FAA INFORMATION EFFECTIVE 28 FEBRUARY 2019

Location

FAA Identifier: I54
Lat/Long: 40-01-12.2130N / 083-49-42.7480W
40-01.203550N / 083-49.712467W
40.0200592 / -83.8285411
(estimated)
Elevation: 958 ft. / 292 m (estimated)
Variation: 04W (1985)
From city: 1 mile NE of TREMONT CITY, OH
Time zone: UTC -5 (UTC -4 during Daylight Saving Time)
Zip code: 45502

Airport Operations

Airport use: Open to the public
Activation date: 07/1964
Control tower: no
ARTCC: INDIANAPOLIS CENTER
FSS: DAYTON FLIGHT SERVICE STATION
NOTAMs facility: DAY (NOTAM-D service available)
Attendance: IREG
Pattern altitude: 1803 ft. MSL
Wind indicator: lighted
Segmented circle: no
Lights: ACTVT LIRL RY 09/27 - 122.8.

Airport Communications

CTAF/UNICOM: 123.0
COLUMBUS APPROACH: 118.425
COLUMBUS DEPARTURE: 118.425
CLASS C: 118.425
IC: 118.425
WX AWOS-3 at I74 (8 nm NE): 118.325 (937-484-5863)
WX AWOS-3PT at SGH (11 nm S): 134.975
WX AWOS-3PT at UYF (18 nm E): 120.85 (740-852-2844)
WX ASOS at DAY (19 nm W): PHONE 937-415-6819
WX AWOS-3 at SCA (20 nm NW): 120.425 (937-492-3683)

Nearby radio navigation aids

VOR radial/distance  VOR name  Freq  Var
SGHr008/11.0SPRINGFIELD VOR/DME113.2004W
RODr154/18.8ROSEWOOD VORTAC117.5005W
DQNr091/26.1DAYTON VOR/DME114.5001W
MXQr002/35.4MIDWEST VOR/DME112.9004W

 
NDB name  Hdg/Dist  Freq  Var  ID
CLARK COUNTY350/9.134104WCCJ -.-. -.-. .---
COURT HOUSE327/32.241406WCSS -.-. ... ...

Airport Services

Parking: hangars and tiedowns
Airframe service: NONE
Powerplant service: NONE
Bottled oxygen: NONE
Bulk oxygen: NONE

Runway Information

Runway 9/27

Dimensions: 3405 x 110 ft. / 1038 x 34 m
Surface: turf, in good condition
Runway edge lights: non-standard
NSTD LIRL; ONLY 2165 FT LGTD BTN DSPLCD THLDS.
Runway edge markings: FIRST 340 FT NOT MKD; RY 27 FIRST 505 FT NOT MKD; ONLY 2560 FT MKD WITH ORANGE CONES; RY 09/27 DSPLCD THLD MKD WITH CONES & ONE GREEN LGT EACH SIDE OF RY.
RUNWAY 9  RUNWAY 27
Latitude: 40-01.191167N40-01.215667N
Longitude: 083-50.076000W083-49.348333W
Elevation: 955.0 ft.955.0 ft.
Gradient: 0.5%0.5%
Traffic pattern: leftleft
Displaced threshold: 340 ft.900 ft.
Markings: nonenone
Runway end identifier lights: no
Obstructions: 25 ft. pole, lighted, 60 ft. left and right of centerline
APCH SLOPE 10:1 TO DSPLCD THLD OVR 186 FT WOODED HILL AT 1955 FT.
15 ft. pole, lighted, 124 ft. left and right of centerline
APCH SLOPE 12:1 TO DSPLCD THLD OVR 105 FT TREES AT 1289 FT FR DSPLCD THLD 167 FT R.

Airport Ownership and Management from official FAA records

Ownership: Privately-owned
Owner: MAD RIVER AIRPARK, LLC
6488 UPPER VALLEY PIKE
URBANA, OH 43078
Phone (937) 390-3040
Manager: TIMOTHY HICKERSON
6488 UPPER VALLEY PIKE
URBANA, OH 43078
Phone (937) 390-3040

Airport Operational Statistics

Aircraft based on the field: 12
Single engine airplanes: 10
Ultralights: 2
    
Aircraft operations: avg 38/week *
50% transient general aviation
50% local general aviation
* for 12-month period ending 27 August 2016

Additional Remarks

CMH APP CD 614-338-8537.

Instrument Procedures

There are no published instrument procedures at I54.

Some nearby airports with instrument procedures:

I74 - Grimes Field Airport (8 nm NE)
KSGH - Springfield-Beckley Municipal Airport (11 nm S)
KFFO - Wright-Patterson Air Force Base (15 nm SW)
KUYF - Madison County Airport (18 nm E)
KDAY - James M Cox Dayton International Airport (19 nm W)
KSCA - Sidney Municipal Airport (20 nm NW)
 
Loc | Ops | Rwys | IFR | FBO | Links
Com | Nav | Svcs | Stats | Notes
Area around I54 (Mad River Airpark)
 
Road maps at: MapQuest Bing Google
 
Aerial photo
WARNING: Photo may not be current or correct
Aerial photo of I54 (Mad River Airpark)
Do you have a better or more recent aerial photo of Mad River Airpark that you would like to share? If so, please send us your photo.

 
Sectional chart

 
Airport distance calculator
Flying to Mad River Airpark? Find the distance to fly.

From to I54

Sunrise and sunset
Times for 22-Mar-2019
 Local
(UTC-4)
 Zulu
(UTC)
Morning civil twilight07:0911:09
Sunrise07:3711:37
Sunset19:4823:48
Evening civil twilight20:1500:15

Current date and time
Zulu (UTC)  22-Mar-2019 17:43:54
Local (UTC-4)  22-Mar-2019 13:43:54
 
METAR
KSGH 
12nm S 
221708Z AUTO 32022G28KT 10SM SCT028 BKN036 OVC048 06/M02 A2993 RMK AO2 PK WND 31028/1706
KFFO 
15nm SW 
221556Z AUTO 31015G20KT 10SM BKN055 BKN075 OVC085 06/00 A2993 RMK AO2 SLP143 T00621005
KUYF 
18nm E 
221715Z AUTO 32016G24KT 10SM SCT037 BKN050 OVC055 05/M02 A2991 RMK AO2
KDAY 
19nm W 
221656Z 32019G28KT 10SM SCT034 BKN046 BKN055 07/M03 A2996 RMK AO2 PK WND 32028/1648 SLP149 T00721028
KEDJ 
21nm N 
221720Z AUTO 35019G29KT 10SM BKN035 BKN041 BKN050 03/M02 A2994 RMK AO1
TAF
KFFO 
15nm SW 
221100Z 2211/2317 24012KT 9999 SKC QNH2985INS BECMG 2214/2215 33020G30KT 9999 SCT025 520003 QNH2990INS BECMG 2221/2222 33015G25KT 9999 BKN035 620352 QNH2998INS BECMG 2223/2224 32009KT 9999 SCT025 QNH3005INS BECMG 2310/2311 VRB06KT 9999 SKC QNH3023INS TX08/2221Z TNM05/2311Z
KDAY 
19nm W 
221449Z 2215/2312 31014G24KT P6SM BKN018 FM221700 32018G30KT P6SM BKN025 FM222100 31014G22KT P6SM SCT040 FM230200 32012G18KT P6SM FEW050 FM231000 32008KT P6SM SKC
NOTAMs
Click for the latest NOTAMs
NOTAMs are issued by the DoD/FAA and will open in a separate window not controlled by AirNav.

 

 
 

Would you like to see your business listed on this page?

 If your business provides an interesting product or service to pilots, flight crews, aircraft, or users of the Mad River Airpark, you should consider listing it here.  To start the listing process, click on the button below
 
Add a business
 

Other Pages about Mad River Airpark

www.madriverinc.com
 
Update a link
 
Copyright © AirNav, LLC. All rights reserved. Privacy Policy  Contact